Oakland, MD

2:32 AM EDT on March 28, 2017 (GMT -0400)
Oakland

Weather History for K2G4 - December, 2011

Change the Weather History Date:

Saturday, December 24, 2011

  Actual Average (KMGW) Record (KMGW)
Temperature  
Mean Temperature 27 °F -  
Max Temperature 30 °F 40 °F 71 °F (2015)
Min Temperature 24 °F 24 °F -11 °F (1983)
Degree Days  
Heating Degree Days 38    
Moisture  
Dew Point 26 °F    
Average Humidity 93    
Maximum Humidity 100    
Minimum Humidity 80    
Precipitation  
Precipitation 0.00 in - - ()
Sea Level Pressure  
Sea Level Pressure 30.26 in    
Wind  
Wind Speed 7 mph (WSW)    
Max Wind Speed 15 mph    
Max Gust Speed 24 mph    
Visibility 8 miles    
Events Fog    
Averages and records for this station are not official NWS values.
T = Trace of Precipitation, MM = Missing Value Source: NWS Daily Summary

Daily Weather History Graph

Daily Weather History Graph

Search for Another Location

Airport or City:

Trip Planner

Search our weather history database for the weather conditions in past years. The results will help you decide how hot, cold, wet, or windy it might be!

Date:

Astronomy

Dec. 24, 2011 Rise Set
Actual Time 7:35 AM EST 4:58 PM EST
Civil Twilight 7:05 AM EST 5:28 PM EST
Nautical Twilight 6:31 AM EST 6:02 PM EST
Astronomical Twilight 5:58 AM EST 6:35 PM EST
Moon 7:22 AM EST (12/24) 5:09 PM EST (12/24)
Length of Visible Light 10h 23m
Length of Day
9h 22m
Waning Crescent, 0% of the Moon is Illuminated
Dec 24
Waning Crescent
Dec 24
New
Jan 1
First Quarter
Jan 9
Full
Jan 16
Last Quarter

Hourly Weather History & Observations

Time (EST) Temp. Windchill Dew Point Humidity Pressure Visibility Wind Dir Wind Speed Gust Speed Precip Events Conditions
12:00 AM 30.2 °F 24.3 °F 30.2 °F 100% 30.14 in 0.2 mi West 5.8 mph - N/A Fog Light Freezing Fog
12:20 AM 30.2 °F 23.4 °F 30.2 °F 100% 30.15 in 0.2 mi West 6.9 mph - N/A Fog Light Freezing Fog
12:40 AM 30.2 °F 25.4 °F 30.2 °F 100% 30.15 in 0.8 mi WNW 4.6 mph - N/A   Overcast
1:00 AM 30.2 °F 24.3 °F 30.2 °F 100% 30.15 in 1.0 mi West 5.8 mph - N/A   Overcast
1:20 AM 30.2 °F 22.6 °F 30.2 °F 100% 30.15 in 2.5 mi West 8.1 mph 17.3 mph N/A   Overcast
1:40 AM 28.4 °F 17.0 °F 28.4 °F 100% 30.16 in 1.5 mi WNW 15.0 mph 24.2 mph N/A   Overcast
2:00 AM 28.4 °F 18.0 °F 28.4 °F 100% 30.18 in 1.0 mi WNW 12.7 mph 18.4 mph N/A   Overcast
2:15 AM 26.6 °F 16.8 °F 26.6 °F 100% 30.19 in 4.0 mi WNW 10.4 mph 18.4 mph N/A   Overcast
2:35 AM 26.6 °F 15.7 °F 26.6 °F 100% 30.19 in 2.5 mi WNW 12.7 mph 20.7 mph N/A   Overcast
3:35 AM 26.6 °F 18.2 °F 26.6 °F 100% 30.21 in 10.0 mi WNW 8.1 mph - N/A   Overcast
4:15 AM 26.6 °F 18.2 °F 26.6 °F 100% 30.22 in 10.0 mi WNW 8.1 mph 19.6 mph N/A   Overcast
4:30 AM 24.8 °F 16.1 °F 24.8 °F 100% 30.22 in 5.0 mi WNW 8.1 mph - N/A   Overcast
4:50 AM 24.8 °F 16.9 °F 24.8 °F 100% 30.23 in 2.5 mi WNW 6.9 mph - N/A   Overcast
5:10 AM 24.8 °F 19.1 °F 24.8 °F 100% 30.24 in 4.0 mi WNW 4.6 mph - N/A   Overcast
5:30 AM 24.8 °F 16.9 °F 24.8 °F 100% 30.24 in 3.0 mi WNW 6.9 mph - N/A   Overcast
5:50 AM 24.8 °F 14.6 °F 24.8 °F 100% 30.25 in 3.0 mi WNW 10.4 mph - N/A   Overcast
6:10 AM 24.8 °F 16.1 °F 24.8 °F 100% 30.25 in 4.0 mi West 8.1 mph - N/A   Overcast
6:30 AM 24.8 °F 15.3 °F 24.8 °F 100% 30.27 in 3.0 mi West 9.2 mph - N/A   Overcast
6:50 AM 24.8 °F 15.3 °F 24.8 °F 100% 30.27 in 7.0 mi West 9.2 mph - N/A   Overcast
7:05 AM 24.8 °F 14.6 °F 24.8 °F 100% 30.28 in 7.0 mi WNW 10.4 mph 16.1 mph N/A   Overcast
7:45 AM 24.8 °F 17.9 °F 24.8 °F 100% 30.29 in 7.0 mi West 5.8 mph - N/A   Overcast
8:05 AM 24.8 °F 16.1 °F 24.8 °F 100% 30.30 in 10.0 mi West 8.1 mph - N/A   Mostly Cloudy
8:25 AM 24.8 °F 16.9 °F 24.8 °F 100% 30.30 in 10.0 mi West 6.9 mph - N/A   Mostly Cloudy
8:45 AM 26.6 °F 19.1 °F 26.6 °F 100% 30.31 in 10.0 mi West 6.9 mph - N/A   Scattered Clouds
9:05 AM 26.6 °F 20.0 °F 26.6 °F 100% 30.32 in 10.0 mi West 5.8 mph - N/A   Scattered Clouds
9:20 AM 26.6 °F 18.2 °F 26.6 °F 100% 30.32 in 10.0 mi West 8.1 mph - N/A   Mostly Cloudy
9:40 AM 26.6 °F 20.0 °F 26.6 °F 100% 30.33 in 10.0 mi WNW 5.8 mph - N/A   Mostly Cloudy
10:00 AM 28.4 °F 20.4 °F 26.6 °F 93% 30.33 in 10.0 mi West 8.1 mph - N/A   Scattered Clouds
10:20 AM 28.4 °F 20.4 °F 26.6 °F 93% 30.34 in 10.0 mi West 8.1 mph - N/A   Clear
10:40 AM 28.4 °F 22.2 °F 26.6 °F 93% 30.34 in 10.0 mi West 5.8 mph - N/A   Scattered Clouds
11:00 AM 28.4 °F 23.3 °F 23.0 °F 80% 30.33 in 10.0 mi WSW 4.6 mph - N/A   Scattered Clouds
11:20 AM 28.4 °F 23.3 °F 23.0 °F 80% 30.32 in 10.0 mi West 4.6 mph - N/A   Mostly Cloudy
11:35 AM 30.2 °F 25.4 °F 24.8 °F 80% 30.32 in 10.0 mi WSW 4.6 mph - N/A   Overcast
11:55 AM 30.2 °F 23.4 °F 24.8 °F 80% 30.31 in 10.0 mi WSW 6.9 mph - N/A   Overcast
12:35 PM 30.2 °F 26.7 °F 26.6 °F 86% 30.29 in 10.0 mi WSW 3.5 mph - N/A   Overcast
12:55 PM 30.2 °F 24.3 °F 26.6 °F 86% 30.29 in 10.0 mi WSW 5.8 mph - N/A   Overcast
1:15 PM 30.2 °F 25.4 °F 26.6 °F 86% 30.29 in 10.0 mi WSW 4.6 mph - N/A   Overcast
1:35 PM 30.2 °F 24.3 °F 26.6 °F 86% 30.28 in 10.0 mi WSW 5.8 mph - N/A   Overcast
1:45 PM 30.2 °F 26.7 °F 26.6 °F 86% 30.28 in 10.0 mi West 3.5 mph - N/A   Overcast
2:10 PM 30.2 °F - 26.6 °F 86% 30.26 in 10.0 mi Calm Calm - N/A   Overcast
2:30 PM 30.2 °F - 26.6 °F 86% 30.26 in 10.0 mi Calm Calm - N/A   Overcast
2:50 PM 30.2 °F 25.4 °F 26.6 °F 86% 30.26 in 10.0 mi WSW 4.6 mph - N/A   Mostly Cloudy
3:10 PM 30.2 °F 25.4 °F 26.6 °F 86% 30.26 in 10.0 mi SW 4.6 mph - N/A   Overcast
3:30 PM 30.2 °F 25.4 °F 26.6 °F 86% 30.27 in 10.0 mi SSW 4.6 mph - N/A   Overcast
3:50 PM 30.2 °F - 26.6 °F 86% 30.27 in 10.0 mi Calm Calm - N/A   Overcast
4:05 PM 30.2 °F 26.7 °F 26.6 °F 86% 30.28 in 10.0 mi SW 3.5 mph - N/A   Overcast
4:25 PM 30.2 °F 25.4 °F 26.6 °F 86% 30.28 in 10.0 mi SW 4.6 mph - N/A   Overcast
4:45 PM 30.2 °F 23.4 °F 26.6 °F 86% 30.28 in 10.0 mi SW 6.9 mph - N/A   Overcast
5:05 PM 30.2 °F 21.9 °F 26.6 °F 86% 30.29 in 10.0 mi SW 9.2 mph 16.1 mph N/A   Overcast
5:25 PM 30.2 °F 24.3 °F 26.6 °F 86% 30.30 in 10.0 mi WSW 5.8 mph - N/A   Mostly Cloudy
5:45 PM 28.4 °F 22.2 °F 26.6 °F 93% 30.29 in 10.0 mi SW 5.8 mph - N/A   Scattered Clouds
6:05 PM 28.4 °F 21.2 °F 26.6 °F 93% 30.29 in 10.0 mi SW 6.9 mph - N/A   Clear
6:40 PM 28.4 °F 22.2 °F 23.0 °F 80% 30.29 in 10.0 mi SSW 5.8 mph - N/A   Clear
7:00 PM 26.6 °F 21.2 °F 23.0 °F 86% 30.28 in 10.0 mi South 4.6 mph - N/A   Clear
7:20 PM 26.6 °F 18.2 °F 23.0 °F 86% 30.27 in 10.0 mi South 8.1 mph - N/A   Clear
7:40 PM 26.6 °F 18.2 °F 23.0 °F 86% 30.27 in 10.0 mi South 8.1 mph - N/A   Clear
8:00 PM 26.6 °F 17.5 °F 24.8 °F 93% 30.27 in 10.0 mi South 9.2 mph - N/A   Clear
8:20 PM 26.6 °F 19.1 °F 23.0 °F 86% 30.27 in 10.0 mi South 6.9 mph - N/A   Clear
8:35 PM 26.6 °F 17.5 °F 24.8 °F 93% 30.27 in 10.0 mi South 9.2 mph - N/A   Clear
8:55 PM 26.6 °F 18.2 °F 24.8 °F 93% 30.27 in 10.0 mi SSW 8.1 mph - N/A   Clear
9:15 PM 26.6 °F 18.2 °F 24.8 °F 93% 30.26 in 10.0 mi South 8.1 mph - N/A   Clear
9:35 PM 26.6 °F 18.2 °F 24.8 °F 93% 30.25 in 10.0 mi South 8.1 mph - N/A   Clear
9:55 PM 26.6 °F 16.8 °F 24.8 °F 93% 30.25 in 10.0 mi South 10.4 mph - N/A   Clear
10:15 PM 26.6 °F 19.1 °F 24.8 °F 93% 30.25 in 10.0 mi SSW 6.9 mph - N/A   Clear
10:35 PM 28.4 °F 19.1 °F 24.8 °F 86% 30.24 in 10.0 mi SSW 10.4 mph - N/A   Clear
10:50 PM 28.4 °F 20.4 °F 24.8 °F 86% 30.24 in 10.0 mi SW 8.1 mph - N/A   Clear
11:10 PM 28.4 °F 21.2 °F 24.8 °F 86% 30.25 in 10.0 mi SW 6.9 mph - N/A   Clear
11:30 PM 28.4 °F 20.4 °F 24.8 °F 86% 30.24 in 10.0 mi SW 8.1 mph - N/A   Clear
11:50 PM 28.4 °F 19.7 °F 26.6 °F 93% 30.24 in 10.0 mi WSW 9.2 mph 16.1 mph N/A   Clear